History for UTSB

Bukhara Airport, Uzbekistan

Daily Weekly Monthly
Daily Summary for Monday, March 25, 2019
  Actual: Average: Record:
Temperature
Mean Temperature: 63 °F / 18 °C - :  
Max Temperature: 80 °F / 27 °C - - ()
Min Temperature: 46 °F / 8 °C - - ()
Degree Days
Heating Degree Days: 2    
Growing Degree Days 13 (Base 50)    
Moisture
Dew Point 42 °F / 6 °C    
Average Humidity 54    
Maximum Humidity 87    
Minimum Humidity 20    
Precipitation
Precipitation 0.00 in / 0.0 cm - - ()
Sea Level Pressure
Sea Level Pressure 29.94 in / 1013.67 hPa   
Wind
Wind Speed 7 mph / 11 km/h ()  
Max Wind Speed 18 mph / 30 km/h   
Max Gust Speed -   
Visibility 5.5 miles / 8.9 kilometers   
Events Rain   

Key: T is trace of precipitation, MM is missing value
Source: Averaged Metar Reports

Graphs

Observations

History Graphs Observations

Obs Go Here...

Features

Weather Apps

WunderRadio

Weather Underground Apps
Check out our wide variety of mobile and setup applications.

Weather Underground Applications

Top of Page

© Copyright 2019
The Weather Company, LLC
Time(+05)TemperatureDew PointHumidity Sea Level Pressure Visibility Wind DirectionWind SpeedGust SpeedPrecipitationEvents Conditions
12:00 AM 51.8 °F / 11.0 °C 44.6 °F / 7.0 °C 76% 30.01 in / 1016 hPa 6.2 miles / 10.0 kilometers NNE 4.6 mph / 7.4 km/h - N/A   Partly Cloudy
12:30 AM 51.8 °F / 11.0 °C 44.6 °F / 7.0 °C 76% 30.01 in / 1016 hPa 6.2 miles / 10.0 kilometers ENE 4.6 mph / 7.4 km/h - N/A   Partly Cloudy
1:00 AM 50.0 °F / 10.0 °C 44.6 °F / 7.0 °C 82% 29.98 in / 1015 hPa 6.2 miles / 10.0 kilometers ENE 4.6 mph / 7.4 km/h - N/A   Partly Cloudy
1:30 AM 50.0 °F / 10.0 °C 44.6 °F / 7.0 °C 82% 29.98 in / 1015 hPa 6.2 miles / 10.0 kilometers NE 4.6 mph / 7.4 km/h - N/A   Partly Cloudy
2:00 AM 50.0 °F / 10.0 °C 44.6 °F / 7.0 °C 82% 29.98 in / 1015 hPa 6.2 miles / 10.0 kilometers NNE 4.6 mph / 7.4 km/h - N/A   Partly Cloudy
2:30 AM 50.0 °F / 10.0 °C 44.6 °F / 7.0 °C 82% 29.98 in / 1015 hPa 6.2 miles / 10.0 kilometers NNE 4.6 mph / 7.4 km/h - N/A   Partly Cloudy
3:00 AM 50.0 °F / 10.0 °C 44.6 °F / 7.0 °C 82% 29.98 in / 1015 hPa 5.0 miles / 8.0 kilometers NE 4.6 mph / 7.4 km/h - N/A   Unknown
3:30 AM 48.2 °F / 9.0 °C 42.8 °F / 6.0 °C 82% 29.98 in / 1015 hPa - NE 4.6 mph / 7.4 km/h - N/A   Clear
4:00 AM 48.2 °F / 9.0 °C 44.6 °F / 7.0 °C 87% 29.98 in / 1015 hPa - NE 4.6 mph / 7.4 km/h - N/A   Clear
4:30 AM 46.4 °F / 8.0 °C 42.8 °F / 6.0 °C 87% 29.98 in / 1015 hPa - East 4.6 mph / 7.4 km/h - N/A   Clear
5:00 AM 46.4 °F / 8.0 °C 42.8 °F / 6.0 °C 87% 29.98 in / 1015 hPa - ENE 4.6 mph / 7.4 km/h - N/A   Clear
5:30 AM 46.4 °F / 8.0 °C 42.8 °F / 6.0 °C 87% 29.98 in / 1015 hPa - ENE 4.6 mph / 7.4 km/h - N/A   Clear
6:00 AM 46.4 °F / 8.0 °C 42.8 °F / 6.0 °C 87% 29.98 in / 1015 hPa - ENE 4.6 mph / 7.4 km/h - N/A   Clear
6:30 AM 46.4 °F / 8.0 °C 42.8 °F / 6.0 °C 87% 29.98 in / 1015 hPa - East 4.6 mph / 7.4 km/h - N/A   Clear
7:00 AM 46.4 °F / 8.0 °C 42.8 °F / 6.0 °C 87% 29.98 in / 1015 hPa - ESE 4.6 mph / 7.4 km/h - N/A   Clear
7:30 AM 50.0 °F / 10.0 °C 42.8 °F / 6.0 °C 76% 29.98 in / 1015 hPa - ESE 6.9 mph / 11.1 km/h - N/A   Clear
8:00 AM 51.8 °F / 11.0 °C 44.6 °F / 7.0 °C 76% 29.98 in / 1015 hPa - ESE 6.9 mph / 11.1 km/h - N/A   Clear
8:30 AM 53.6 °F / 12.0 °C 44.6 °F / 7.0 °C 72% 29.95 in / 1014 hPa - East 9.2 mph / 14.8 km/h - N/A   Clear
9:00 AM 57.2 °F / 14.0 °C 46.4 °F / 8.0 °C 67% 29.95 in / 1014 hPa - ESE 9.2 mph / 14.8 km/h - N/A   Clear
9:30 AM 60.8 °F / 16.0 °C 46.4 °F / 8.0 °C 59% 30.01 in / 1016 hPa - ESE 4.6 mph / 7.4 km/h - N/A   Clear
10:00 AM 62.6 °F / 17.0 °C 46.4 °F / 8.0 °C 55% 30.01 in / 1016 hPa - ESE 6.9 mph / 11.1 km/h - N/A   Clear
11:00 AM 68.0 °F / 20.0 °C 44.6 °F / 7.0 °C 43% 29.98 in / 1015 hPa - ESE 11.5 mph / 18.5 km/h - N/A   Clear
11:30 AM 69.8 °F / 21.0 °C 42.8 °F / 6.0 °C 38% 29.98 in / 1015 hPa 6.2 miles / 10.0 kilometers ESE 9.2 mph / 14.8 km/h - N/A   Scattered Clouds
12:00 PM 71.6 °F / 22.0 °C 39.2 °F / 4.0 °C 31% 29.98 in / 1015 hPa - ESE 11.5 mph / 18.5 km/h - N/A   Clear
12:30 PM 75.2 °F / 24.0 °C 37.4 °F / 3.0 °C 25% 29.98 in / 1015 hPa - ESE 11.5 mph / 18.5 km/h - N/A   Clear
1:00 PM 73.4 °F / 23.0 °C 39.2 °F / 4.0 °C 29% 29.95 in / 1014 hPa 6.2 miles / 10.0 kilometers SSE 13.8 mph / 22.2 km/h - N/A Rain Light Rain Showers
1:30 PM 75.2 °F / 24.0 °C 39.2 °F / 4.0 °C 27% 29.92 in / 1013 hPa 6.2 miles / 10.0 kilometers SSE 16.1 mph / 25.9 km/h - N/A   Partly Cloudy
2:00 PM 75.2 °F / 24.0 °C 37.4 °F / 3.0 °C 25% 29.92 in / 1013 hPa - South 18.4 mph / 29.6 km/h - N/A   Clear
2:30 PM 77.0 °F / 25.0 °C 41.0 °F / 5.0 °C 28% 29.92 in / 1013 hPa - SSE 16.1 mph / 25.9 km/h - N/A   Clear
3:00 PM 77.0 °F / 25.0 °C 41.0 °F / 5.0 °C 28% 29.89 in / 1012 hPa - SSE 16.1 mph / 25.9 km/h - N/A   Clear
3:30 PM 78.8 °F / 26.0 °C 41.0 °F / 5.0 °C 26% 29.89 in / 1012 hPa - SSE 13.8 mph / 22.2 km/h - N/A   Clear
4:30 PM 80.6 °F / 27.0 °C 37.4 °F / 3.0 °C 21% 29.89 in / 1012 hPa - SSE 13.8 mph / 22.2 km/h - N/A   Clear
5:00 PM 80.6 °F / 27.0 °C 35.6 °F / 2.0 °C 20% 29.86 in / 1011 hPa - SSE 16.1 mph / 25.9 km/h - N/A   Clear
5:30 PM 78.8 °F / 26.0 °C 37.4 °F / 3.0 °C 23% 29.86 in / 1011 hPa - SSE 13.8 mph / 22.2 km/h - N/A   Clear
6:30 PM 77.0 °F / 25.0 °C 39.2 °F / 4.0 °C 26% 29.86 in / 1011 hPa - South 13.8 mph / 22.2 km/h - N/A   Clear
7:00 PM 75.2 °F / 24.0 °C 39.2 °F / 4.0 °C 27% 29.86 in / 1011 hPa 5.0 miles / 8.0 kilometers South 11.5 mph / 18.5 km/h - N/A   Unknown
7:30 PM 71.6 °F / 22.0 °C 35.6 °F / 2.0 °C 27% 29.86 in / 1011 hPa 5.0 miles / 8.0 kilometers SSE 9.2 mph / 14.8 km/h - N/A   Unknown
8:00 PM 71.6 °F / 22.0 °C 41.0 °F / 5.0 °C 33% 29.86 in / 1011 hPa 5.0 miles / 8.0 kilometers SE 9.2 mph / 14.8 km/h - N/A   Unknown
8:30 PM 71.6 °F / 22.0 °C 41.0 °F / 5.0 °C 33% 29.86 in / 1011 hPa 5.0 miles / 8.0 kilometers SSE 9.2 mph / 14.8 km/h - N/A   Unknown
9:00 PM 69.8 °F / 21.0 °C 41.0 °F / 5.0 °C 35% 29.89 in / 1012 hPa 5.0 miles / 8.0 kilometers South 11.5 mph / 18.5 km/h - N/A   Unknown
9:30 PM 66.2 °F / 19.0 °C 42.8 °F / 6.0 °C 43% 29.89 in / 1012 hPa 5.0 miles / 8.0 kilometers South 6.9 mph / 11.1 km/h - N/A   Unknown
10:00 PM 64.4 °F / 18.0 °C 42.8 °F / 6.0 °C 45% 29.89 in / 1012 hPa 5.0 miles / 8.0 kilometers South 4.6 mph / 7.4 km/h - N/A   Unknown
10:30 PM 64.4 °F / 18.0 °C 42.8 °F / 6.0 °C 45% 29.89 in / 1012 hPa 5.0 miles / 8.0 kilometers SSE 4.6 mph / 7.4 km/h - N/A   Unknown
11:00 PM 60.8 °F / 16.0 °C 42.8 °F / 6.0 °C 52% 29.89 in / 1012 hPa 5.0 miles / 8.0 kilometers ESE 4.6 mph / 7.4 km/h - N/A   Unknown
11:30 PM 59.0 °F / 15.0 °C 41.0 °F / 5.0 °C 51% 29.89 in / 1012 hPa 5.0 miles / 8.0 kilometers East 9.2 mph / 14.8 km/h - N/A   Unknown